Wind_Speed
50 50 51 51 51 52 52 53 53 53 52 52 54 55 57 58 59 61 62 63 64 66 67 69 70 71 72 73 73 73 74 74 74 74 74 74 74 74
51 51 52 52 52 53 53 54 55 56 56 56 57 58 59 60 61 63 64 66 67 69 70 72 73 74 75 75 76 76 76 76 77 77 77 77 76 76
51 52 52 52 53 54 54 55 56 58 58 58 60 61 63 64 65 67 68 70 71 73 74 76 76 77 78 78 78 78 79 79 79 78 78 78 78 78
52 52 52 53 54 55 56 57 58 60 61 61 63 65 66 68 70 71 73 75 77 78 79 80 80 80 80 80 80 80 79 79 78 78 78 78 78 78
52 53 54 55 55 56 58 59 61 62 64 65 67 69 71 73 75 76 78 79 81 81 82 82 82 81 80 79 78 77 76 75 75 74 74 74 74 74
53 54 55 56 57 59 60 62 64 65 67 69 71 73 75 77 79 80 81 81 81 81 81 80 79 78 76 75 74 73 72 70 69 68 67 67 67 67
55 56 57 58 60 62 63 65 67 69 71 74 75 77 78 80 82 83 83 81 80 79 77 75 74 72 71 69 68 66 65 63 61 60 58 58 57 57
56 58 59 61 63 64 66 69 71 74 76 79 80 81 82 83 83 83 82 79 75 73 72 69 67 65 64 61 59 58 56 54 52 50 49 48 47 47
59 61 62 64 66 68 70 72 74 77 80 82 83 83 83 83 83 80 77 74 70 66 64 61 59 57 55 53 51 49 47 46 44 43 42 41 40 40
62 64 65 67 70 72 74 76 78 80 81 83 83 83 82 80 78 75 71 67 62 58 56 53 49 48 46 44 43 42 40 39 38 37 36 35 35 34
65 67 69 71 73 76 78 79 80 81 81 81 81 80 77 74 71 67 62 58 53 48 47 45 42 41 39 38 36 36 35 33 31 31 30 30 30 31
68 70 72 73 76 78 80 81 81 80 79 78 76 72 69 65 61 57 54 50 46 41 39 38 36 35 33 32 31 31 30 28 27 26 26 27 27 27
71 72 74 76 78 79 80 80 79 78 76 73 69 65 61 56 52 49 47 44 39 35 33 33 31 30 28 27 27 27 26 25 24 23 23 23 24 24
74 75 77 78 78 78 78 77 76 74 71 67 62 58 53 48 45 43 40 37 34 31 29 28 27 26 24 23 23 23 23 22 22 21 20 20 21 21
77 78 78 78 78 76 75 74 72 69 65 60 55 50 46 43 41 38 35 33 30 28 27 25 24 23 21 21 21 21 21 20 20 19 19 19 19 20
79 79 78 77 75 73 71 69 66 62 57 53 48 45 42 39 36 34 31 29 27 26 24 23 22 21 20 19 19 18 18 18 18 18 18 18 18 18
80 79 77 74 72 69 66 62 59 55 51 47 44 41 38 35 32 30 28 26 24 23 22 21 20 19 18 17 17 17 16 16 16 16 17 17 17 17
79 76 73 70 67 63 59 55 52 49 46 43 40 37 33 30 28 27 25 24 22 21 20 19 18 17 17 16 16 16 16 16 16 16 16 15 15 16
75 71 68 64 60 56 53 50 47 44 42 39 36 32 29 27 25 24 23 22 20 19 19 18 17 16 16 15 15 15 15 15 15 15 15 15 15 15
70 66 62 59 55 52 49 46 43 40 38 34 31 28 26 25 23 22 21 20 19 18 17 16 15 15 15 14 14 14 14 14 14 14 14 14 14 15
64 61 58 54 51 48 45 41 38 36 33 30 28 26 25 23 22 21 20 18 18 17 16 15 14 14 14 14 14 13 13 13 13 13 13 13 13 14
60 56 53 50 47 43 40 37 34 32 30 28 26 24 23 22 20 19 18 17 17 16 15 15 14 14 14 14 14 13 13 12 12 12 12 12 13 13
55 51 48 45 42 39 36 33 32 30 28 26 25 23 22 21 19 18 18 17 16 15 15 14 14 13 13 13 13 13 13 12 12 12 12 12 12 12
Wind_Direction
295 295 295 294 293 293 292 292 291 290 288 288 287 287 286 286 285 285 284 284 283 283 282 281 281 280 279 279 278 277 276 275 274 273 272 271 269 268
296 296 295 295 294 294 293 293 293 292 291 290 290 289 288 288 287 286 286 285 285 284 283 282 282 280 279 279 278 277 276 275 274 273 272 271 270 269
296 296 296 295 295 294 294 294 294 293 293 292 292 292 291 291 290 289 289 288 287 286 285 284 283 282 281 280 279 277 276 275 274 273 272 270 269 268
297 296 296 296 296 296 295 295 295 295 294 294 294 293 293 292 292 291 291 290 289 289 288 287 286 284 283 281 280 278 277 275 274 273 271 270 269 268
297 297 298 297 297 297 297 297 296 296 296 296 295 295 294 294 293 293 292 292 291 290 289 288 286 285 284 282 281 279 277 275 274 272 271 269 268 266
298 298 299 298 298 298 298 298 298 297 297 297 297 296 296 295 295 294 293 293 292 290 289 288 286 285 284 282 280 279 277 276 274 272 270 269 267 266
299 299 299 300 299 299 299 299 299 299 299 298 298 297 297 296 296 295 295 294 293 291 289 288 286 284 283 281 280 278 277 275 273 271 269 267 265 264
299 300 300 300 300 300 300 300 300 300 300 300 300 299 299 298 298 297 296 295 293 291 289 287 285 284 283 281 280 278 276 274 272 269 267 266 264 262
300 301 301 301 301 301 301 301 301 302 301 301 301 301 300 300 299 298 296 295 293 291 289 287 285 284 282 280 279 277 274 272 269 267 265 263 262 260
302 302 302 302 302 302 302 302 302 302 302 301 302 302 301 301 299 298 297 295 293 291 289 287 284 282 280 279 277 275 273 270 268 265 262 260 258 256
303 303 303 303 303 302 303 303 303 303 302 302 302 302 301 301 300 298 297 295 293 291 288 286 283 280 279 277 275 273 272 269 266 262 260 257 254 252
303 303 304 304 304 303 303 304 303 303 303 303 302 302 301 301 299 298 297 295 293 291 287 285 283 280 277 275 273 272 270 267 264 261 257 254 251 249
304 304 304 304 304 304 304 304 304 304 304 304 303 302 301 300 298 296 295 294 293 291 286 284 282 279 277 272 271 270 268 265 263 260 256 252 250 249
305 305 305 305 305 304 304 304 304 305 304 304 303 302 301 299 297 296 294 293 291 289 285 283 281 278 275 271 268 267 265 264 262 258 254 251 249 249
305 306 306 305 305 304 304 304 304 304 304 303 302 301 300 299 297 294 293 291 290 287 283 281 279 276 273 270 268 265 263 261 258 255 253 252 249 247
305 305 305 305 304 304 304 304 303 303 302 302 301 300 298 297 295 292 291 289 287 285 282 279 277 274 271 270 267 262 259 256 254 253 252 251 249 246
305 305 305 304 304 304 303 303 302 301 301 300 300 299 297 295 292 290 289 287 286 283 279 276 274 271 269 268 264 258 255 253 252 251 251 251 249 246
305 306 305 305 305 304 303 303 302 301 300 299 298 297 294 292 290 289 287 285 284 280 276 273 270 267 266 264 259 255 253 252 251 250 250 249 246 244
305 305 305 305 304 304 303 302 301 300 298 297 296 294 292 290 288 287 285 283 281 278 274 270 265 263 262 261 257 252 251 250 249 249 248 247 246 244
304 304 304 304 303 302 301 300 300 298 296 294 292 290 289 288 286 284 282 280 278 275 271 266 262 259 258 256 253 251 248 248 248 247 246 245 245 243
304 303 303 302 302 301 300 299 298 297 294 291 289 287 287 285 283 280 277 276 274 271 267 263 258 255 252 251 250 249 248 245 244 244 244 243 242 240
303 303 302 301 300 299 298 296 296 294 291 288 285 284 284 282 279 276 273 272 271 268 263 259 255 251 248 247 247 247 244 242 241 241 242 241 239 236
303 302 301 300 298 297 295 293 293 291 288 285 282 281 279 277 275 271 269 268 266 263 258 254 252 248 245 244 244 244 243 240 239 239 239 239 235 230
Height
5678 5673 5669 5664 5660 5656 5652 5648 5645 5642 5640 5635 5630 5625 5620 5616 5612 5607 5604 5600 5596 5592 5587 5584 5580 5576 5573 5570 5568 5566 5564 5562 5561 5560 5560 5560 5560 5561
5665 5661 5656 5651 5647 5642 5638 5634 5629 5625 5623 5620 5614 5609 5604 5600 5595 5590 5586 5581 5577 5572 5567 5563 5559 5555 5551 5548 5545 5543 5541 5539 5537 5537 5536 5535 5536 5536
5652 5648 5643 5638 5634 5629 5624 5619 5614 5609 5606 5604 5597 5591 5586 5581 5576 5571 5565 5560 5556 5551 5545 5540 5535 5531 5527 5524 5521 5518 5516 5514 5512 5511 5510 5510 5510 5512
5640 5635 5630 5625 5620 5615 5610 5604 5599 5594 5589 5586 5581 5574 5568 5561 5555 5550 5544 5538 5532 5527 5520 5514 5509 5504 5500 5497 5494 5491 5489 5487 5486 5485 5484 5484 5484 5484
5627 5622 5617 5611 5606 5600 5595 5589 5583 5577 5571 5567 5562 5556 5549 5541 5534 5528 5522 5515 5508 5501 5494 5488 5482 5477 5472 5469 5465 5463 5461 5460 5459 5458 5458 5457 5458 5458
5613 5608 5602 5597 5591 5585 5579 5573 5566 5560 5553 5547 5542 5535 5528 5519 5511 5504 5498 5491 5483 5475 5468 5461 5456 5451 5446 5442 5439 5437 5435 5434 5433 5433 5433 5433 5433 5434
5600 5594 5588 5582 5575 5569 5562 5556 5548 5541 5534 5526 5520 5513 5506 5496 5487 5479 5472 5465 5458 5448 5442 5437 5430 5426 5422 5418 5415 5413 5412 5411 5411 5411 5411 5411 5412 5413
5586 5580 5573 5567 5560 5553 5545 5538 5529 5520 5512 5504 5497 5489 5481 5471 5461 5453 5445 5438 5434 5426 5417 5414 5406 5403 5399 5396 5394 5392 5392 5392 5392 5392 5393 5393 5394 5395
5571 5564 5558 5550 5542 5535 5528 5520 5511 5500 5490 5480 5472 5464 5455 5446 5436 5428 5420 5413 5408 5402 5394 5392 5387 5383 5380 5378 5376 5375 5375 5375 5376 5377 5378 5379 5380 5381
5555 5548 5541 5533 5524 5515 5508 5500 5491 5481 5470 5459 5449 5440 5430 5420 5411 5403 5397 5391 5388 5382 5375 5373 5370 5367 5365 5363 5362 5361 5361 5361 5362 5364 5365 5367 5368 5370
5540 5532 5523 5515 5506 5496 5487 5479 5471 5460 5449 5438 5428 5417 5408 5399 5389 5382 5377 5372 5369 5366 5360 5356 5355 5353 5352 5351 5350 5349 5349 5350 5351 5353 5354 5356 5358 5360
5524 5515 5505 5496 5486 5475 5464 5455 5447 5438 5427 5418 5408 5398 5389 5380 5372 5365 5360 5356 5353 5352 5348 5344 5343 5341 5341 5341 5340 5339 5340 5341 5342 5344 5345 5347 5349 5351
5505 5496 5487 5476 5466 5455 5443 5433 5424 5415 5406 5397 5388 5380 5372 5365 5358 5352 5347 5343 5341 5339 5337 5334 5333 5331 5331 5332 5331 5331 5331 5332 5334 5336 5337 5339 5341 5343
5485 5476 5467 5456 5445 5435 5424 5414 5403 5394 5386 5378 5371 5363 5357 5351 5346 5341 5336 5333 5330 5329 5327 5325 5324 5323 5323 5324 5324 5324 5324 5325 5327 5328 5330 5332 5334 5336
5464 5455 5446 5435 5424 5415 5404 5394 5385 5376 5368 5362 5355 5349 5343 5339 5334 5330 5327 5324 5322 5320 5318 5317 5317 5316 5316 5317 5317 5317 5318 5319 5320 5322 5324 5326 5328 5330
5444 5435 5425 5415 5404 5394 5385 5376 5367 5359 5352 5347 5341 5337 5332 5328 5323 5320 5318 5316 5314 5312 5311 5310 5310 5310 5310 5310 5310 5311 5312 5313 5315 5316 5318 5320 5322 5324
5422 5414 5405 5395 5386 5377 5368 5359 5351 5344 5339 5333 5329 5325 5321 5317 5314 5312 5310 5308 5306 5305 5304 5303 5303 5303 5304 5304 5305 5306 5307 5308 5310 5311 5313 5315 5317 5319
5400 5392 5384 5375 5367 5358 5351 5344 5337 5331 5326 5321 5318 5314 5311 5308 5306 5304 5302 5301 5299 5298 5298 5297 5297 5298 5298 5299 5300 5301 5302 5303 5305 5306 5308 5310 5312 5314
5380 5372 5364 5357 5349 5342 5336 5330 5324 5319 5314 5310 5307 5304 5301 5300 5298 5296 5295 5294 5293 5292 5292 5291 5292 5292 5293 5294 5295 5296 5297 5299 5300 5302 5303 5305 5307 5309
5361 5354 5347 5340 5333 5327 5322 5316 5311 5307 5303 5300 5297 5295 5293 5292 5290 5289 5288 5287 5287 5286 5286 5286 5287 5287 5288 5289 5290 5291 5293 5294 5295 5297 5299 5300 5302 5304
5343 5336 5330 5324 5318 5313 5308 5304 5299 5296 5293 5290 5288 5287 5285 5284 5283 5282 5281 5281 5281 5281 5281 5281 5282 5283 5283 5284 5286 5287 5288 5290 5291 5293 5294 5296 5298 5300
5326 5320 5314 5309 5304 5299 5295 5292 5289 5286 5283 5281 5280 5278 5277 5277 5276 5275 5275 5275 5275 5275 5276 5276 5277 5278 5279 5280 5281 5283 5284 5286 5287 5289 5290 5292 5294 5295
5310 5304 5299 5295 5290 5287 5284 5281 5278 5276 5274 5272 5271 5270 5270 5269 5269 5269 5269 5269 5270 5270 5271 5272 5272 5274 5275 5276 5277 5279 5280 5282 5283 5285 5287 5288 5290 5292